L06 Sormano 2 Observatory, Bellagio Via Lattea.  Observers E. Valli, G.
    Ventre.  Measurer P. Sicoli.  0.36m Schmidt Cassegrain + CCD.
L90 ABObservatory, Rosarno.  Observer A. Brosio.  0.30-m f/4.0 reflector +
    CCD.
Orbital elements:
2024 AW3                                                 Earth MOID = 0.1181 AU
Epoch 2023 Sept. 13.0 TT = JDT 2460200.5                Bell                    
M 326.55017              (2000.0)            P               Q                  
n   0.54807369     Peri.   90.98142     +0.72835965     -0.49336635             
a   1.4788022      Node   298.73887     +0.16869763     +0.80169487             
e   0.4608808      Incl.   32.83888     +0.66410340     +0.33745366             
P   1.80           H   21.74          G   0.15           U   8                  
Residuals in seconds of arc
240111 703  0.4+  0.4-    240111 203  0.6+  0.2+    240112 K78  0.2+  0.2+
240111 703  0.8-  0.6+    240111 L01  0.0   0.0     240112 K78  0.6+  0.5+
240111 703  0.3-  0.4+    240111 L01  0.1+  0.2-    240112 L90  0.0   3.4-
240111 703  0.7+  0.7+    240111 L01  0.2+  0.3+    240112 L90  0.2+  1.4+
240111 703  0.0   0.0     240111 L01  0.1+  0.1+    240112 L90  0.1-  0.5-
240111 703  0.1+  0.7+    240111 L01  0.1+  0.0     240112 L04  0.1-  0.1+
240111 703  1.0+  0.3+    240111 203  0.4+  0.1-    240112 L04  0.2+  0.6+
240111 K35  0.2-  0.0     240111 203  0.1-  0.1-    240112 L04  0.2-  0.5+
240111 K35  0.2-  0.0     240112 K74  0.0   0.4-    240112 104  0.1-  0.3+
240111 K35  0.0   0.2+    240112 K74  0.2-  0.1-    240112 104  0.2-  0.2+
240111 K35  0.1-  0.0     240112 511  1.2-  1.6-    240112 104  0.1-  0.3+
240111 587  0.2+  0.2-    240112 K74  0.4-  0.3-    240112 K83  0.1-  0.3+
240111 587  0.0   0.2-    240112 511  0.1+  0.0     240112 K83  0.2-  0.4+
240111 B72  0.0   0.1+    240112 K74  0.3+  0.2+    240112 K83  0.2-  0.1+
240111 587  0.3-  0.2-    240112 K74  0.1+  0.3-    240112 K63  0.3+  0.2+
240111 B72  0.1-  0.1+    240112 511  0.6-  0.8-    240112 K63  0.2+  0.2-
240111 B72  0.1+  0.1+    240112 511  0.2-  0.5-    240112 K63  0.3+  0.2+
240111 B72  0.1-  0.1-    240112 L01  0.1+  0.1+    240112 K19  0.0   0.2-
240111 B72  0.1-  0.2-    240112 L01  0.2+  0.0     240112 K19  0.2-  0.1+
240111 B72  0.1-  0.1-    240112 L01  0.1+  0.0     240112 K19  0.5-  0.1+
240111 B72  0.1-  0.1-    240112 L01  0.2+  0.0     240112 C82 (0.9-  0.9-)
240111 B72  0.3-  0.1-    240112 L01  0.2+  0.1-    240112 C82  0.1-  0.0
240111 B72  0.1+  0.3-    240112 204  0.1-  0.1+    240112 C82  0.4-  0.4-
240111 L01  0.0   0.0     240112 204  0.1-  0.3-    240112 C82  0.3+  0.1-
240111 L01  0.0   0.0     240112 L06  0.4+  0.0     240112 K38  0.2-  0.2-
240111 L01  0.1+  0.0     240112 L06  0.2+  0.1+    240112 K38  0.0   0.0
240111 L01  0.1-  0.0     240112 L06  0.1+  0.0     240112 K38  0.1+  0.2-
240111 L01  0.1-  0.2-    240112 K78  0.1-  0.3+
Ephemeris:
2024 AW3                 a,e,i = 1.48, 0.46, 33                  q = 0.7973
Date    TT    R. A. (2000) Decl.     Delta      r    Elong.  Phase     V
2023 12 14    17 24 52.3 +41 09 01   0.3520  0.8903    64.3    94.8    22.6
...
2023 12 29    16 33 34.1 +56 46 47   0.2120  0.9828    83.7    84.0    21.3
...
2024 01 06    13 53 50.2 +71 03 48   0.1501  1.0382   107.4    64.6    20.0
...
2024 01 12    09 01 26.8 +62 17 28   0.1294  1.0812   136.6    38.6    19.0
2024 01 13    08 35 01.6 +58 06 01   0.1296  1.0885   142.0    33.8    18.9
2024 01 14    08 14 28.6 +53 40 11   0.1308  1.0958   147.1    29.2    18.8
...
2024 01 20    07 13 13.9 +29 12 32   0.1602  1.1396   165.3    12.6    18.8
...
2024 01 28    06 47 40.5 +10 32 00   0.2360  1.1984   152.1    22.6    20.1
...
2024 02 12    06 38 08.4 -02 12 08   0.4199  1.3071   132.3    33.9    21.8
M. P. C. Staff               (C) Copyright 2024 MPC           M.P.E.C. 2024-A147
    
    
More information about the Iaude
mailing list